FW8535 Weather Reports


time (UTC)temp
F
wind
direction
speed
knots
gust
knots
rain 1hr
in
rain 24hr
in
rain mn
in
humidity
%
barometer
mb
20260831215525 81 290 10.4 19.1 0.00 0.00 0.00 31 1010.9
20260831214523 81 267 7.8 15.6 0.00 0.00 0.00 32 1010.8
20260831214022 81 257 7.8 15.6 0.00 0.00 0.00 32 1010.8
20260831213522 81 237 7.8 15.6 0.00 0.00 0.00 32 1010.8
20260831213035 81 275 7.0 16.5 0.00 0.00 0.00 32 1010.8
20260831212522 81 247 7.8 16.5 0.00 0.00 0.00 33 1010.8
20260831212022 81 272 6.1 20.0 0.00 0.00 0.00 32 1010.8
20260831211522 81 261 9.6 20.0 0.00 0.00 0.00 32 1010.9
20260831211021 81 248 8.7 16.5 0.00 0.00 0.00 32 1011.0
20260831210521 81 315 10.4 23.5 0.00 0.00 0.00 32 1011.3
20260831210021 81 248 10.4 23.5 0.00 0.00 0.00 31 1010.9
20260831205520 81 261 7.8 16.5 0.00 0.00 0.00 32 1011.0
20260831205024 81 272 7.8 15.6 0.00 0.00 0.00 32 1011.2
20260831204522 81 272 9.6 15.6 0.00 0.00 0.00 32 1011.2
20260831204022 81 268 7.8 15.6 0.00 0.00 0.00 33 1011.1
20260831203522 81 253 6.1 20.0 0.00 0.00 0.00 33 1011.0
20260831203036 81 260 8.7 20.0 0.00 0.00 0.00 31 1011.0
20260831202519 80 286 8.7 18.2 0.00 0.00 0.00 32 1011.0
20260831202019 80 238 7.8 18.2 0.00 0.00 0.00 33 1010.8
20260831201519 80 250 7.8 20.0 0.00 0.00 0.00 34 1011.0
20260831201018 79 261 11.3 20.0 0.00 0.00 0.00 34 1011.1
20260831200518 79 223 8.7 25.2 0.00 0.00 0.00 34 1011.0
20260831200017 80 229 8.7 20.9 0.00 0.00 0.00 34 1011.0
20260831195516 80 246 8.7 22.6 0.00 0.00 0.00 34 1010.9
20260831195115 80 263 8.7 17.4 0.00 0.00 0.00 35 1011.0
20260831194523 80 295 7.8 17.4 0.00 0.00 0.00 35 1011.0
20260831194019 79 259 7.8 25.2 0.00 0.00 0.00 36 1011.0
20260831193519 79 247 9.6 25.2 0.00 0.00 0.00 36 1011.1
20260831193021 79 263 9.6 19.1 0.00 0.00 0.00 36 1010.9
20260831192524 79 271 9.6 19.1 0.00 0.00 0.00 37 1011.0
20260831192017 79 273 9.6 20.0 0.00 0.00 0.00 37 1011.0
20260831191516 79 265 8.7 20.9 0.00 0.00 0.00 37 1011.1
20260831191017 78 253 10.4 20.9 0.00 0.00 0.00 37 1011.0
20260831190515 78 249 7.8 20.0 0.00 0.00 0.00 38 1010.9
20260831190015 78 315 8.7 20.0 0.00 0.00 0.00 38 1011.0
20260831185517 78 245 12.2 18.2 0.00 0.00 0.00 37 1010.9
20260831185014 78 246 7.8 20.9 0.00 0.00 0.00 38 1010.9
20260831184507 78 247 7.8 20.9 0.00 0.00 0.00 38 1010.9
20260831184006 77 251 8.7 20.9 0.00 0.00 0.00 38 1010.8
20260831183507 78 262 10.4 18.2 0.00 0.00 0.00 38 1010.8
20260831183006 78 256 10.4 17.4 0.00 0.00 0.00 38 1010.8
20260831182505 78 238 7.0 14.8 0.00 0.00 0.00 38 1010.9
20260831182004 78 303 7.8 16.5 0.00 0.00 0.00 39 1010.9
20260831181503 77 259 7.0 18.2 0.00 0.00 0.00 39 1010.8
20260831181002 76 267 9.6 18.2 0.00 0.00 0.00 40 1010.9
20260831180502 76 290 8.7 20.0 0.00 0.00 0.00 40 1010.8
20260831180003 76 279 10.4 20.0 0.00 0.00 0.00 39 1011.0
20260831175502 77 264 8.7 17.4 0.00 0.00 0.00 39 1011.2
20260831175102 77 286 7.0 17.4 0.00 0.00 0.00 40 1011.2
20260831174100 76 292 8.7 15.6 0.00 0.00 0.00 40 1010.9
20260831173603 76 290 9.6 20.9 0.00 0.00 0.00 40 1010.9
20260831173100 75 272 7.8 20.9 0.00 0.00 0.00 41 1011.0
20260831172601 75 258 7.8 17.4 0.00 0.00 0.00 41 1011.0
20260831172056 75 246 8.7 22.6 0.00 0.00 0.00 41 1011.0
20260831171604 75 250 11.3 22.6 0.00 0.00 0.00 40 1011.1
20260831171055 74 265 8.7 20.9 0.00 0.00 0.00 41 1010.8
20260831170554 74 280 9.6 20.9 0.00 0.00 0.00 41 1010.8
20260831170054 74 254 11.3 20.0 0.00 0.00 0.00 41 1010.7
20260831165554 73 292 9.6 19.1 0.00 0.00 0.00 41 1010.8
20260831165052 73 238 8.7 18.2 0.00 0.00 0.00 41 1010.8
20260831164056 73 294 9.6 18.2 0.00 0.00 0.00 41 1010.8
20260831163554 73 254 10.4 16.5 0.00 0.00 0.00 41 1010.7
20260831163054 73 278 9.6 17.4 0.00 0.00 0.00 41 1010.7
20260831162553 72 238 9.6 17.4 0.00 0.00 0.00 41 1010.6
20260831162052 72 269 9.6 17.4 0.00 0.00 0.00 40 1010.7
20260831161552 72 267 8.7 17.4 0.00 0.00 0.00 40 1010.7
20260831161052 72 261 9.6 17.4 0.00 0.00 0.00 40 1010.8
20260831160551 72 261 10.4 20.9 0.00 0.00 0.00 40 1010.6
20260831160117 72 270 10.4 22.6 0.00 0.00 0.00 40 1010.8
20260831155550 71 277 12.2 22.6 0.00 0.00 0.00 39 1010.7
20260831155049 71 263 9.6 23.5 0.00 0.00 0.00 40 1010.6
20260831154051 71 261 10.4 23.5 0.00 0.00 0.00 41 1010.5
20260831153546 70 240 10.4 23.5 0.00 0.00 0.00 41 1010.5
20260831153121 70 263 11.3 20.0 0.00 0.00 0.00 41 1010.5
20260831152544 69 234 9.6 20.0 0.00 0.00 0.00 42 1010.7
20260831152045 69 237 10.4 16.5 0.00 0.00 0.00 42 1010.5
20260831151542 69 238 7.0 17.4 0.00 0.00 0.00 43 1010.4
20260831151042 68 253 12.2 17.4 0.00 0.00 0.00 42 1010.4
20260831150544 68 236 8.7 23.5 0.00 0.00 0.00 43 1010.6
20260831150040 68 237 10.4 23.5 0.00 0.00 0.00 43 1010.6
20260831145539 68 265 8.7 18.2 0.00 0.00 0.00 42 1010.4
20260831145042 67 290 10.4 23.5 0.00 0.00 0.00 42 1010.4
20260831144039 67 233 12.2 23.5 0.00 0.00 0.00 42 1010.2
20260831143538 67 228 12.2 21.7 0.00 0.00 0.00 43 1010.1
20260831143038 66 236 9.6 18.2 0.00 0.00 0.00 44 1010.1
20260831142536 65 256 11.3 22.6 0.00 0.00 0.00 44 1010.2
20260831142035 65 238 10.4 22.6 0.00 0.00 0.00 45 1010.4
20260831141535 64 284 13.9 20.0 0.00 0.00 0.00 45 1010.3
20260831141035 64 229 11.3 16.5 0.00 0.00 0.00 46 1010.2
20260831140530 64 241 8.7 15.6 0.00 0.00 0.00 47 1010.4
20260831140029 63 248 9.6 15.6 0.00 0.00 0.00 48 1010.3
20260831135529 62 238 9.6 15.6 0.00 0.00 0.00 49 1010.4
20260831135129 62 246 9.6 14.8 0.00 0.00 0.00 50 1010.5
20260831134027 61 240 9.6 17.4 0.00 0.00 0.00 52 1010.4
20260831133526 60 240 8.7 14.8 0.00 0.00 0.00 53 1010.4
20260831133125 60 238 8.7 14.8 0.00 0.00 0.00 54 1010.4
20260831132523 59 232 7.8 13.9 0.00 0.00 0.00 55 1010.3
20260831132022 59 251 7.8 12.2 0.00 0.00 0.00 56 1010.3
20260831131525 59 233 4.3 12.2 0.00 0.00 0.00 57 1010.4
20260831131019 58 235 6.1 12.2 0.00 0.00 0.00 57 1010.2
20260831130518 58 222 5.2 14.8 0.00 0.00 0.00 57 1010.0
20260831130017 57 246 8.7 14.8 0.00 0.00 0.00 58 1010.1
20260831125516 57 223 5.2 10.4 0.00 0.00 0.00 59 1010.0
20260831125017 56 266 4.3 10.4 0.00 0.00 0.00 59 1009.9
20260831124013 56 238 4.3 11.3 0.00 0.00 0.00 60 1010.0
20260831123515 56 244 5.2 13.0 0.00 0.00 0.00 60 1009.8
20260831123111 56 257 7.8 13.0 0.00 0.00 0.00 60 1009.8
20260831122511 56 234 7.0 11.3 0.00 0.00 0.00 61 1009.7
20260831122011 55 238 7.0 10.4 0.00 0.00 0.00 63 1009.8
20260831121521 55 232 6.1 11.3 0.00 0.00 0.00 63 1009.8
20260831121013 56 239 6.1 11.3 0.00 0.00 0.00 62 1009.8
20260831120509 56 234 6.1 12.2 0.00 0.00 0.00 62 1009.9
20260831120023 56 233 7.8 13.0 0.00 0.00 0.00 63 1009.9
20260831115508 56 229 8.7 13.0 0.00 0.00 0.00 64 1009.7
20260831115014 55 221 7.8 10.4 0.00 0.00 0.00 68 1009.5
20260831114009 55 223 7.8 10.4 0.00 0.00 0.00 70 1009.7
20260831113511 55 229 7.0 13.0 0.00 0.00 0.00 69 1009.4
20260831113008 55 225 7.8 13.0 0.00 0.00 0.00 67 1009.4
20260831112508 55 244 7.8 13.0 0.00 0.00 0.00 68 1009.2
20260831112008 55 242 7.8 13.0 0.00 0.00 0.00 70 1009.2
20260831111506 55 199 6.1 13.0 0.00 0.00 0.00 70 1009.1
20260831111007 54 215 7.0 10.4 0.00 0.00 0.00 70 1009.1
20260831110507 54 230 6.1 9.6 0.00 0.00 0.00 71 1009.2
20260831110006 54 227 6.1 7.8 0.00 0.00 0.00 71 1009.1
20260831105506 53 234 5.2 8.7 0.00 0.00 0.00 74 1009.1
20260831105009 54 211 4.3 8.7 0.00 0.00 0.00 73 1008.8
20260831104007 56 219 6.1 11.3 0.00 0.00 0.00 70 1008.9
20260831103506 56 227 7.8 11.3 0.00 0.00 0.00 69 1008.9
20260831103005 55 229 6.1 8.7 0.00 0.00 0.00 71 1008.9
20260831102506 56 222 6.1 15.6 0.00 0.00 0.00 71 1009.0
20260831102005 56 222 7.0 15.6 0.00 0.00 0.00 69 1009.1
20260831101506 56 237 3.5 13.9 0.00 0.00 0.00 71 1009.0
20260831101005 56 238 7.0 13.9 0.00 0.00 0.00 73 1009.0
20260831100502 56 236 6.1 13.0 0.00 0.00 0.00 75 1009.1
20260831100003 56 229 8.7 13.0 0.00 0.00 0.00 76 1009.2
20260831095501 56 225 8.7 13.0 0.00 0.00 0.00 76 1009.2
20260831095100 56 239 9.6 13.0 0.00 0.00 0.00 78 1009.1
20260831094035 53 250 6.1 9.6 0.00 0.00 0.00 85 1009.1
20260831093532 51 229 3.5 8.7 0.00 0.00 0.00 85 1009.4
20260831093030 51 143 0.0 3.5 0.00 0.00 0.00 83 1009.3
20260831092529 52 143 1.7 3.5 0.00 0.00 0.00 83 1009.1
20260831092032 52 143 0.9 5.2 0.00 0.00 0.00 83 1009.1
20260831091528 53 150 2.6 5.2 0.00 0.00 0.00 82 1009.1
20260831090557 53 140 4.3 8.7 0.00 0.00 0.00 81 1009.0
20260831090054 54 123 4.3 8.7 0.00 0.00 0.00 81 1009.0
20260831085554 54 200 1.7 5.2 0.00 0.00 0.00 81 1008.9
20260831085055 53 185 2.6 6.1 0.00 0.00 0.00 82 1008.9
20260831084557 54 188 2.6 7.0 0.00 0.00 0.00 82 1008.8
20260831084053 54 187 5.2 7.8 0.00 0.00 0.00 82 1008.9
20260831083554 53 181 4.3 6.1 0.00 0.00 0.00 83 1008.7
20260831083057 53 199 4.3 6.1 0.00 0.00 0.00 83 1008.8
20260831082554 53 195 2.6 7.0 0.00 0.00 0.00 82 1008.6
20260831082052 54 212 4.3 7.0 0.00 0.00 0.00 82 1008.7
20260831081558 54 210 4.3 7.0 0.00 0.00 0.00 82 1008.7
20260831080554 54 209 5.2 7.8 0.00 0.00 0.00 82 1008.6
20260831080050 54 221 5.2 9.6 0.00 0.00 0.00 81 1008.7
20260831075550 55 209 6.1 9.6 0.00 0.00 0.00 81 1008.6
20260831075049 55 190 7.0 9.6 0.00 0.00 0.00 81 1008.6
20260831074553 55 193 7.0 10.4 0.00 0.00 0.00 81 1008.7
20260831074048 55 204 6.1 8.7 0.00 0.00 0.00 80 1008.5
20260831073551 55 196 4.3 9.6 0.00 0.00 0.00 79 1008.6
20260831073048 55 189 7.0 10.4 0.00 0.00 0.00 79 1008.6
20260831072551 55 215 7.0 8.7 0.00 0.00 0.00 78 1008.7
20260831072046 55 215 5.2 7.8 0.00 0.00 0.00 78 1008.6
20260831071546 55 217 6.1 7.8 0.00 0.00 0.00 77 1008.6
20260831070549 54 220 4.3 7.0 0.00 0.00 0.00 77 1008.6
20260831070108 54 222 5.2 8.7 0.00 0.00 0.00 77 1008.7
20260831065546 54 225 5.2 9.6 0.00 0.00 0.00 78 1008.6
20260831065044 54 209 6.1 9.6 0.00 0.00 0.00 79 1008.6
20260831064645 54 209 3.5 6.1 0.00 0.00 0.00 78 1008.7
20260831064043 54 229 3.5 4.3 0.00 0.00 0.00 77 1008.7
20260831063541 55 241 2.6 4.3 0.00 0.00 0.00 76 1008.5
20260831063041 55 242 1.7 6.1 0.00 0.00 0.00 77 1008.8
20260831062541 55 241 2.6 6.1 0.00 0.00 0.00 77 1008.8
20260831062041 54 257 1.7 6.1 0.00 0.00 0.00 79 1008.7
20260831061541 54 258 0.9 6.1 0.00 0.00 0.00 80 1008.9
20260831060540 52 227 3.5 6.1 0.00 0.00 0.00 83 1009.1
20260831060048 51 227 3.5 6.1 0.00 0.00 0.00 84 1008.9
20260831055539 50 229 3.5 4.3 0.00 0.00 0.00 83 1008.9
20260831055043 50 229 3.5 4.3 0.00 0.00 0.00 84 1009.0
20260831054539 50 229 2.6 4.3 0.00 0.00 0.00 84 1008.9
20260831054039 50 230 2.6 4.3 0.00 0.00 0.00 84 1008.8
20260831053539 50 229 2.6 4.3 0.00 0.00 0.00 84 1008.9
20260831053039 50 229 2.6 4.3 0.00 0.00 0.00 84 1008.9
20260831052539 51 230 3.5 4.3 0.00 0.00 0.00 84 1009.0
20260831052040 51 230 2.6 4.3 0.00 0.00 0.00 85 1008.8
20260831051552 50 230 2.6 4.3 0.00 0.00 0.00 84 1009.1
20260831050540 50 231 2.6 4.3 0.00 0.00 0.00 84 1009.0
20260831050041 50 232 2.6 4.3 0.00 0.00 0.00 83 1008.9
20260831045539 51 232 2.6 3.5 0.00 0.00 0.00 83 1009.0
20260831045039 51 232 2.6 3.5 0.00 0.00 0.00 82 1008.9
20260831044543 51 232 1.7 3.5 0.00 0.00 0.00 83 1008.8
20260831044038 51 232 2.6 3.5 0.00 0.00 0.00 83 1008.9
20260831043537 52 232 2.6 4.3 0.00 0.00 0.00 83 1008.8
20260831043041 51 232 2.6 4.3 0.00 0.00 0.00 83 1009.0
20260831042537 51 234 2.6 3.5 0.00 0.00 0.00 83 1008.9
20260831042038 52 234 2.6 3.5 0.00 0.00 0.00 80 1008.9
20260831041536 53 250 1.7 3.5 0.00 0.00 0.00 79 1008.7
20260831040536 54 252 0.0 3.5 0.00 0.00 0.00 79 1008.6
20260831040045 54 252 0.9 3.5 0.00 0.00 0.00 80 1008.7
20260831035535 54 252 1.7 3.5 0.00 0.00 0.00 79 1008.7
20260831035034 54 252 1.7 3.5 0.00 0.00 0.00 78 1008.6
20260831034534 54 252 1.7 3.5 0.00 0.00 0.00 79 1008.6
20260831034034 54 252 1.7 3.5 0.00 0.00 0.00 79 1008.6
20260831033534 54 252 1.7 3.5 0.00 0.00 0.00 79 1008.7
20260831033033 54 252 2.6 3.5 0.00 0.00 0.00 77 1008.6
20260831032532 55 262 0.0 2.6 0.00 0.00 0.00 76 1008.5
20260831032031 56 263 0.0 2.6 0.00 0.00 0.00 76 1008.6
20260831031530 56 263 0.0 0.9 0.00 0.00 0.00 75 1008.5
20260831030526 57 263 0.0 0.9 0.00 0.00 0.00 74 1008.5
20260831030029 57 263 0.0 0.0 0.00 0.00 0.00 74 1008.7
20260831025525 57 263 0.0 0.0 0.00 0.00 0.00 74 1008.5
20260831025023 57 263 0.0 0.0 0.00 0.00 0.00 72 1008.5
20260831024523 58 263 0.0 1.7 0.00 0.00 0.00 71 1008.4
20260831024024 58 264 0.0 1.7 0.00 0.00 0.00 70 1008.3
20260831023520 59 264 0.9 1.7 0.00 0.00 0.00 70 1008.2
20260831023029 59 263 0.0 1.7 0.00 0.00 0.00 70 1008.3
20260831022519 59 264 0.0 2.6 0.00 0.00 0.00 70 1008.2
20260831022019 59 264 0.0 2.6 0.00 0.00 0.00 70 1008.2
20260831021539 60 264 1.7 2.6 0.00 0.00 0.00 69 1007.8
20260831020517 60 264 1.7 3.5 0.00 0.00 0.00 68 1007.7
20260831020015 60 264 1.7 3.5 0.00 0.00 0.00 67 1007.5
20260831015519 61 265 1.7 3.5 0.00 0.00 0.00 66 1007.4
20260831015019 61 271 1.7 2.6 0.00 0.00 0.00 66 1007.6
20260831014515 62 271 1.7 3.5 0.00 0.00 0.00 65 1007.6
20260831014014 63 271 1.7 6.1 0.00 0.00 0.00 64 1007.5
20260831013514 63 271 1.7 6.1 0.00 0.00 0.00 63 1007.3
20260831013014 64 262 1.7 5.2 0.00 0.00 0.00 64 1007.1
20260831012514 64 253 3.5 5.2 0.00 0.00 0.00 64 1007.1
20260831012014 64 245 1.7 7.0 0.00 0.00 0.00 65 1007.2
20260831011513 65 229 6.1 10.4 0.00 0.00 0.00 64 1007.2
20260831010516 65 242 7.0 11.3 0.00 0.00 0.00 64 1007.0
20260831010032 65 230 7.0 11.3 0.00 0.00 0.00 65 1007.0
20260831005515 65 223 7.8 13.0 0.00 0.00 0.00 65 1007.0
20260831005014 65 227 7.8 13.0 0.00 0.00 0.00 64 1007.0
20260831004618 65 234 9.6 13.0 0.00 0.00 0.00 64 1006.6
20260831004014 65 228 8.7 11.3 0.00 0.00 0.00 64 1006.7
20260831003514 65 228 6.1 10.4 0.00 0.00 0.00 65 1006.6
20260831003013 66 223 7.0 10.4 0.00 0.00 0.00 65 1006.6
20260831002514 66 236 7.0 13.0 0.00 0.00 0.00 66 1006.9
20260831002014 66 218 8.7 13.0 0.00 0.00 0.00 66 1006.9
20260831001527 66 227 7.0 12.2 0.00 0.00 0.00 67 1006.8
20260831000516 66 233 7.0 12.2 0.00 0.00 0.00 68 1006.9
20260831000016 64 237 6.1 8.7 0.00 0.00 0.00 70 1006.8
20260830235516 63 202 5.2 8.7 0.00 0.00 0.00 72 1006.8
20260830235017 63 236 5.2 8.7 0.00 0.00 0.00 74 1007.0
20260830234516 63 213 4.3 7.0 0.00 0.00 0.00 75 1007.1
20260830234019 62 226 4.3 6.1 0.00 0.00 0.00 75 1007.0
20260830233518 62 221 2.6 6.1 0.00 0.00 0.00 75 1007.1
20260830233016 62 235 2.6 5.2 0.00 0.00 0.00 76 1007.2
20260830232520 62 235 1.7 5.2 0.00 0.00 0.00 76 1007.3
20260830232016 62 235 2.6 5.2 0.00 0.00 0.00 75 1007.2
20260830231526 62 203 1.7 6.1 0.00 0.00 0.00 77 1007.2
20260830230513 62 167 0.0 5.2 0.00 0.00 0.00 77 1006.8
20260830230013 62 167 3.5 5.2 0.00 0.00 0.00 76 1006.6
20260830225513 62 194 0.0 3.5 0.00 0.00 0.00 74 1006.7
20260830225013 62 194 0.9 7.0 0.00 0.00 0.00 73 1006.4
20260830224513 62 236 1.7 12.2 0.00 0.00 0.00 72 1007.1
20260830224013 63 261 7.0 16.5 0.00 0.00 0.00 73 1008.1
20260830223513 64 238 7.0 16.5 0.00 0.00 0.00 70 1008.3
20260830223017 66 205 7.8 14.8 0.00 0.00 0.00 66 1008.5
20260830222511 66 275 6.1 18.2 0.00 0.00 0.00 62 1007.8
20260830222013 66 280 9.6 22.6 0.00 0.00 0.00 62 1008.5
20260830221511 68 238 12.2 17.4 0.00 0.00 0.00 59 1008.6
20260830220512 68 274 7.8 19.1 0.00 0.00 0.00 57 1008.1
20260830220013 68 235 7.0 19.1 0.00 0.00 0.00 57 1007.9